Location: Krakow
(50.0830°N, 19.9170°E)
Time: 07:06:57
(UTC+02:00)

Tiros 1 despin weight - Pass Details

Date: 22 March 2026
Orbit: 555 x 592 km, 48.2° (Epoch: 18 April)

Event Time Altitude Azimuth Distance (km) Brightness Sun altitude
Rises 01:01:57 0° 189° (S) 2,810 - -36.9°
Reaches altitude 10° 01:05:52 10° 154° (SSE) 1,915 - -36.7°
Maximum altitude 01:07:08 11° 137° (SE) 1,844 - -36.6°
Drops below altitude 10° 01:08:24 10° 120° (ESE) 1,917 - -36.5°
Exits shadow 01:11:51 - 88° (E) 2,676 ? -36.2°
Sets 01:12:19 0° 85° (E) 2,819 ? -36.2°
